Weather History for KDMH - June, 2013

Change the Weather History Date:

Tuesday, June 18, 2013

  Actual Average Record
Temperature  
Mean Temperature 77 °F 77 °F  
Max Temperature 83 °F 86 °F 97 °F (2006)
Min Temperature 70 °F 68 °F 57 °F (1999)
Degree Days  
Heating Degree Days 0 0  
Month to date heating degree days 0 4  
Since 1 June heating degree days 0 4  
Since 1 July heating degree days 3387 4030  
Cooling Degree Days 12 12  
Month to date cooling degree days 229 171  
Year to date cooling degree days 459 310  
Since 1 June cooling degree days 229 171  
Growing Degree Days 26 (Base 50)    
Moisture  
Dew Point 67 °F    
Average Humidity 73    
Maximum Humidity 84    
Minimum Humidity 62    
Precipitation  
Precipitation 0.14 in 0.11 in 0.47 in (2014)
Month to date precipitation 7.74 2.04  
Year to date precipitation 21.90 18.13  
Sea Level Pressure  
Sea Level Pressure 29.86 in    
Wind  
Wind Speed - (North)    
Max Wind Speed -    
Max Gust Speed -    
T = Trace of Precipitation, MM = Missing Value Source: NWS Daily Summary

Daily Weather History Graph

Daily Weather History Graph

Search for Another Location

Airport or City:

Trip Planner

Search our weather history database for the weather conditions in past years. The results will help you decide how hot, cold, wet, or windy it might be!

Date:

Astronomy

Jun. 18, 2013 Rise Set
Actual Time 5:39 AM EDT 8:35 PM EDT
Civil Twilight 5:07 AM EDT 9:08 PM EDT
Nautical Twilight 4:26 AM EDT 9:49 PM EDT
Astronomical Twilight 3:39 AM EDT 10:36 PM EDT
Moon 3:19 PM EDT (6/18) 1:45 AM EDT (6/18)
Length of Visible Light 16h 00m
Length of Day
14h 56m
Waxing Gibbous, 70% of the Moon is Illuminated
Jun 18
Waxing Gibbous
Jun 23
Full
Jun 30
Last Quarter
Jul 8
New
Jul 15
First Quarter

Hourly Weather History & Observations

Time (EDT) Temp. Heat Index Dew Point Humidity Pressure Visibility Wind Dir Wind Speed Gust Speed Precip Events Conditions
12:54 AM 78.1 °F - 68.0 °F 71% 29.92 in - North - - N/A   Unknown
1:54 AM 78.1 °F - 68.0 °F 71% 29.91 in - North - - N/A   Unknown
2:54 AM 77.0 °F - 68.0 °F 74% 29.88 in - North - - N/A   Unknown
3:54 AM 77.0 °F - 66.9 °F 71% 29.87 in - North - - N/A   Unknown
4:54 AM 75.9 °F - 68.0 °F 76% 29.87 in - North - - N/A   Unknown
5:54 AM 77.0 °F - 68.0 °F 74% 29.87 in - North - - N/A   Unknown
6:54 AM 77.0 °F - 70.0 °F 79% 29.88 in - North - - N/A   Unknown
7:54 AM 78.1 °F - 71.1 °F 79% 29.88 in - North - - N/A   Unknown
8:54 AM 79.0 °F - 71.1 °F 77% 29.88 in - North - - N/A   Unknown
9:54 AM 79.0 °F - 70.0 °F 74% 29.87 in - North - - N/A   Unknown
10:54 AM 80.1 °F 83.2 °F 70.0 °F 71% 29.87 in - North - - N/A   Unknown
11:54 AM 82.0 °F 84.9 °F 68.0 °F 62% 29.86 in - North - - N/A   Unknown
12:54 PM 82.0 °F 85.5 °F 69.1 °F 65% 29.83 in - North - - N/A   Unknown
1:54 PM 82.9 °F 85.8 °F 68.0 °F 60% 29.80 in - North - - N/A   Unknown
2:54 PM 80.1 °F 82.1 °F 66.0 °F 62% 29.83 in - North - - N/A   Unknown
3:54 PM 73.0 °F - 66.9 °F 81% 29.85 in - North - - 0.11 in   Unknown
4:54 PM 71.1 °F - 66.0 °F 84% 29.84 in - North - - 0.03 in   Unknown
5:54 PM 71.1 °F - 64.0 °F 78% 29.83 in - North - - N/A   Unknown
6:54 PM 71.1 °F - 64.9 °F 81% 29.81 in - North - - N/A   Unknown
8:54 PM 71.1 °F - 63.0 °F 75% 29.85 in - North - - N/A   Unknown
10:54 PM 70.0 °F - 62.1 °F 76% 29.88 in - North - - N/A   Unknown
11:54 PM 71.1 °F - 63.0 °F 75% 29.88 in - North - - N/A   Unknown